Location: Derby
(52.9213°N, 1.4761°W)
Time: 02:47:40
(UTC+01:00)

Vanguard 2 Rocket - Pass Details

Date: 21 May 2025
Orbit: 554 x 3293 km, 32.9° (Epoch: 12 June)

Event Time Altitude Azimuth Distance (km) Brightness Sun altitude
Rises 00:39:51 0° 235° (SW) 7,094 11.2 -16.7°
Reaches altitude 10° 00:45:52 10° 226° (SW) 5,808 10.6 -16.8°
Maximum altitude 00:58:47 29° 177° (S) 3,573 9.3 -16.9°
Drops below altitude 10° 01:07:43 10° 123° (ESE) 3,957 9.8 -16.9°
Sets 01:10:53 0° 112° (ESE) 4,581 10.3 -16.9°
